GALAXY 35 (G-35)

Last updated on Tue Jul 01 2025 00:02:49 GMT+0000 (Coordinated Universal Time)

1 54741U 22170A 25181.47800255 -.00000162 00000+0 00000+0 0 9999 2 54741 0.0169 48.0554 0001997 48.7271 260.9750 1.00268470 9365
UTC large
Height (km)
Speed (km/s)
/
Latitude / Longitude
Inclination (degrees)
Orbital Period (minutes)
Azimuth
Elevation
Range (km)
Doppler Factor

Next 0 passes for location: London (51.5072 / 0.1276)

Sorry there are no passes over London.